Weather History for McGuire AFB, NJ

Change the Weather History Date:

Saturday, April 5, 2014

  Actual Average Record
Temperature  
Mean Temperature 48 °F -  
Max Temperature 56 °F 56 °F 66 °F (2001)
Min Temperature 40 °F 36 °F 28 °F (2002)
Degree Days  
Heating Degree Days 17    
Moisture  
Dew Point 40 °F    
Average Humidity 87    
Maximum Humidity 100    
Minimum Humidity 36    
Precipitation  
Precipitation 0.00 in - - ()
Sea Level Pressure  
Sea Level Pressure 29.79 in    
Wind  
Wind Speed 7 mph (NNW)    
Max Wind Speed 22 mph    
Max Gust Speed 30 mph    
Visibility 4 miles    
Events Rain    
Averages and records for this station are not official NWS values.
T = Trace of Precipitation, MM = Missing Value Source: NWS Daily Summary

Daily Weather History Graph

Daily Weather History Graph

Search for Another Location

Airport:

Trip Planner

Search our weather history database for the weather conditions in past years. The results will help you decide how hot, cold, wet, or windy it might be!

Date:

Astronomy

Apr. 05, 2014 Rise Set
Actual Time 6:35 AM EDT 7:26 PM EDT
Civil Twilight 6:08 AM EDT 7:54 PM EDT
Nautical Twilight 5:35 AM EDT 8:26 PM EDT
Astronomical Twilight 5:02 AM EDT 9:00 PM EDT
Moon 10:41 AM EDT (4/5) 12:34 AM EDT (4/5)
Length of Visible Light 13h 45m
Length of Day
12h 50m
Waxing Crescent, 34% of the Moon is Illuminated
Apr 5
Waxing Crescent
Apr 7
First Quarter
Apr 15
Full
Apr 22
Last Quarter
Apr 29
New

Hourly Weather History & Observations

Time (EDT) Temp. Windchill Dew Point Humidity Pressure Visibility Wind Dir Wind Speed Gust Speed Precip Events Conditions
12:06 AM 42.8 °F 38.6 °F 42.8 °F 100% 29.71 in 1.8 mi NNE 6.9 mph - N/A   Overcast
12:25 AM 42.8 °F 38.0 °F 42.8 °F 100% 29.72 in 1.8 mi NNE 8.1 mph - N/A   Overcast
12:28 AM 42.8 °F 38.6 °F 42.8 °F 100% 29.72 in 1.8 mi NNE 6.9 mph - N/A   Overcast
12:34 AM 42.8 °F 40.1 °F 42.8 °F 100% 29.71 in 2.0 mi NNE 4.6 mph - N/A Rain Light Rain
12:44 AM 42.8 °F 38.0 °F 42.8 °F 100% 29.71 in 2.5 mi NNE 8.1 mph - N/A   Overcast
12:58 AM 42.3 °F 37.3 °F 42.1 °F 99% 29.73 in 2.5 mi NNE 8.1 mph - 0.00 in   Overcast
1:22 AM 42.8 °F 37.5 °F 42.8 °F 100% 29.70 in 3.0 mi NE 9.2 mph - N/A   Overcast
1:58 AM 42.4 °F 37.5 °F 42.3 °F 99% 29.73 in 3.0 mi North 8.1 mph - N/A   Overcast
2:01 AM 42.8 °F 38.6 °F 42.8 °F 100% 29.72 in 3.0 mi North 6.9 mph - N/A   Overcast
2:04 AM 42.8 °F 39.3 °F 42.8 °F 100% 29.72 in 2.5 mi North 5.8 mph - N/A   Overcast
2:10 AM 42.8 °F 40.1 °F 42.8 °F 100% 29.72 in 3.0 mi North 4.6 mph - N/A   Overcast
2:19 AM 42.8 °F 39.3 °F 42.8 °F 100% 29.72 in 3.0 mi North 5.8 mph - N/A   Overcast
2:22 AM 42.8 °F 40.1 °F 42.8 °F 100% 29.72 in 2.5 mi North 4.6 mph - N/A   Overcast
2:28 AM 42.8 °F 40.1 °F 42.8 °F 100% 29.72 in 1.8 mi North 4.6 mph - N/A   Overcast
2:31 AM 42.8 °F 40.1 °F 42.8 °F 100% 29.72 in 1.5 mi North 4.6 mph - N/A   Overcast
2:37 AM 42.8 °F 40.1 °F 42.8 °F 100% 29.73 in 1.2 mi North 4.6 mph - N/A   Overcast
2:49 AM 42.8 °F - 42.8 °F 100% 29.72 in 1.5 mi Variable 2.3 mph - N/A   Overcast
2:58 AM 43.0 °F 39.5 °F 42.8 °F 99% 29.73 in 1.5 mi North 5.8 mph - N/A   Overcast
3:07 AM 42.8 °F 40.1 °F 42.8 °F 100% 29.71 in 1.2 mi North 4.6 mph - N/A   Overcast
3:10 AM 42.8 °F 40.1 °F 42.8 °F 100% 29.71 in 1.5 mi North 4.6 mph - N/A   Overcast
3:16 AM 42.8 °F 40.1 °F 42.8 °F 100% 29.71 in 1.8 mi North 4.6 mph - N/A   Overcast
3:19 AM 42.8 °F 39.3 °F 42.8 °F 100% 29.71 in 2.0 mi NNE 5.8 mph - N/A   Overcast
3:43 AM 42.8 °F 40.1 °F 42.8 °F 100% 29.71 in 1.8 mi North 4.6 mph - N/A   Overcast
3:49 AM 42.8 °F 38.6 °F 42.8 °F 100% 29.71 in 1.5 mi North 6.9 mph - N/A   Overcast
3:55 AM 42.8 °F 38.6 °F 42.8 °F 100% 29.71 in 1.2 mi NNW 6.9 mph - N/A   Overcast
3:58 AM 42.4 °F 38.1 °F 42.3 °F 99% 29.73 in 1.2 mi North 6.9 mph - N/A   Overcast
4:01 AM 42.8 °F 39.3 °F 42.8 °F 100% 29.72 in 1.0 mi NNW 5.8 mph - N/A   Mist
4:10 AM 42.8 °F 38.6 °F 41.0 °F 93% 29.72 in 1.2 mi NNW 6.9 mph - N/A   Overcast
4:25 AM 41.0 °F 38.0 °F 41.0 °F 100% 29.72 in 1.5 mi North 4.6 mph - N/A   Overcast
4:28 AM 41.0 °F 38.0 °F 41.0 °F 100% 29.73 in 2.0 mi North 4.6 mph - N/A   Overcast
4:37 AM 41.0 °F 38.0 °F 41.0 °F 100% 29.73 in 2.0 mi NNW 4.6 mph - N/A   Overcast
4:40 AM 41.0 °F 38.0 °F 41.0 °F 100% 29.74 in 1.8 mi Variable 4.6 mph - N/A   Overcast
4:52 AM 41.0 °F 38.0 °F 41.0 °F 100% 29.74 in 1.5 mi NW 4.6 mph - N/A   Overcast
4:55 AM 41.0 °F 36.4 °F 41.0 °F 100% 29.75 in 1.2 mi NNW 6.9 mph - N/A   Overcast
4:58 AM 41.7 °F 38.8 °F 41.5 °F 99% 29.75 in 1.2 mi NW 4.6 mph - N/A   Overcast
5:01 AM 42.8 °F 40.1 °F 41.0 °F 93% 29.75 in 1.0 mi Variable 4.6 mph - N/A   Mist
5:07 AM 42.8 °F 38.6 °F 41.0 °F 93% 29.76 in 0.8 mi NW 6.9 mph - N/A   Mist
5:10 AM 42.8 °F 39.3 °F 42.8 °F 100% 29.77 in 0.8 mi NW 5.8 mph - N/A   Mist
5:13 AM 42.8 °F 38.0 °F 42.8 °F 100% 29.77 in 1.0 mi NW 8.1 mph - N/A   Mist
5:16 AM 42.8 °F 37.5 °F 42.8 °F 100% 29.77 in 0.8 mi NW 9.2 mph - N/A   Mist
5:19 AM 42.8 °F 37.0 °F 42.8 °F 100% 29.77 in 0.8 mi NW 10.4 mph - N/A   Mist
5:40 AM 42.8 °F 39.3 °F 41.0 °F 93% 29.78 in 1.0 mi NW 5.8 mph - N/A   Mist
5:58 AM 42.1 °F 39.2 °F 41.9 °F 99% 29.79 in 1.0 mi NW 4.6 mph - N/A   Mist
6:01 AM 42.8 °F 39.3 °F 41.0 °F 93% 29.78 in 1.2 mi NW 5.8 mph - N/A   Overcast
6:07 AM 42.8 °F 39.3 °F 41.0 °F 93% 29.78 in 1.5 mi WNW 5.8 mph - N/A   Overcast
6:10 AM 42.8 °F 39.3 °F 41.0 °F 93% 29.78 in 1.8 mi NW 5.8 mph - N/A   Overcast
6:13 AM 42.8 °F 41.1 °F 42.8 °F 100% 29.78 in 2.0 mi NW 3.5 mph - N/A   Overcast
6:19 AM 42.8 °F 38.6 °F 42.8 °F 100% 29.78 in 3.0 mi NW 6.9 mph - N/A   Overcast
6:22 AM 42.8 °F 38.6 °F 42.8 °F 100% 29.78 in 3.0 mi NW 6.9 mph - N/A   Overcast
6:31 AM 42.8 °F 39.3 °F 42.8 °F 100% 29.79 in 3.0 mi WNW 5.8 mph - N/A   Overcast
6:37 AM 42.8 °F 39.3 °F 42.8 °F 100% 29.79 in 2.5 mi West 5.8 mph - N/A   Overcast
6:43 AM 42.8 °F 38.6 °F 42.8 °F 100% 29.79 in 3.0 mi West 6.9 mph - N/A   Overcast
6:58 AM 42.4 °F 38.8 °F 42.3 °F 99% 29.81 in 3.0 mi WNW 5.8 mph - N/A   Overcast
7:58 AM 43.9 °F 39.9 °F 43.9 °F 100% 29.83 in 8.0 mi West 6.9 mph - N/A   Mostly Cloudy
8:07 AM 44.6 °F 41.4 °F 44.6 °F 100% 29.82 in 10.0 mi West 5.8 mph - N/A   Scattered Clouds
8:58 AM 48.4 °F - 43.9 °F 84% 29.84 in 10.0 mi WNW 10.4 mph - N/A   Partly Cloudy
9:58 AM 52.3 °F - 37.2 °F 56% 29.85 in 10.0 mi NW 17.3 mph 25.3 mph N/A   Partly Cloudy
10:58 AM 53.6 °F - 32.2 °F 44% 29.86 in 10.0 mi WNW 19.6 mph 29.9 mph N/A   Clear
11:58 AM 54.9 °F - 31.8 °F 42% 29.86 in 10.0 mi WNW 13.8 mph 25.3 mph N/A   Clear
12:58 PM 55.6 °F - 31.3 °F 40% 29.87 in 10.0 mi WNW 17.3 mph 24.2 mph N/A   Mostly Cloudy
1:58 PM 54.0 °F - 30.6 °F 41% 29.89 in 10.0 mi WNW 18.4 mph 26.5 mph N/A   Mostly Cloudy
2:58 PM 55.6 °F - 28.8 °F 36% 29.89 in 10.0 mi NW 21.9 mph 25.3 mph N/A   Mostly Cloudy
3:58 PM 54.7 °F - 28.9 °F 37% 29.91 in 10.0 mi WNW 13.8 mph 25.3 mph N/A   Partly Cloudy
4:58 PM 53.8 °F - 29.1 °F 39% 29.94 in 10.0 mi WNW 16.1 mph 26.5 mph N/A   Partly Cloudy
5:58 PM 51.8 °F - 28.6 °F 41% 29.95 in 10.0 mi NW 18.4 mph 24.2 mph N/A   Scattered Clouds
6:58 PM 48.7 °F - 27.9 °F 44% 29.97 in 10.0 mi NW 19.6 mph 28.8 mph N/A   Clear
7:58 PM 46.4 °F 40.1 °F 27.0 °F 47% 30.00 in 10.0 mi WNW 15.0 mph 23.0 mph N/A   Clear
8:58 PM 44.6 °F 38.1 °F 26.8 °F 50% 30.04 in 10.0 mi NW 13.8 mph 18.4 mph N/A   Clear
9:58 PM 43.3 °F 36.8 °F 25.7 °F 50% 30.06 in 10.0 mi WNW 12.7 mph - N/A   Clear
10:58 PM 42.1 °F 37.7 °F 25.3 °F 52% 30.08 in 10.0 mi WNW 6.9 mph - N/A   Clear
11:58 PM 40.8 °F 35.0 °F 25.5 °F 55% 30.10 in 10.0 mi WNW 9.2 mph - N/A   Clear